Wetbulb
75.12 74.57 73.53 68.99 61.30 58.94 55.12 58.00 61.27 60.35 60.85 64.59 66.38 64.84 62.34 63.51 60.66 56.28 68.82 70.87 71.44 71.81 73.15 74.61 77.02 78.05 78.11 78.34 78.80 78.72 78.79 78.43 78.99 78.95 78.26 77.51 77.60 77.46 77.39 77.03 76.87 76.85 76.50 76.45 76.48 76.61 76.31 75.67 75.45
75.03 73.21 70.08 64.91 57.80 52.87 53.76 60.61 59.42 61.72 64.14 66.10 66.39 65.24 63.13 61.65 66.12 67.07 67.85 70.98 72.45 72.75 73.15 74.69 77.39 77.95 77.98 78.38 78.54 78.65 78.28 78.15 78.98 78.76 78.18 77.62 77.52 77.46 77.04 76.80 76.66 76.55 76.59 76.45 76.40 76.01 76.32 76.04 75.62
74.35 71.49 63.41 58.74 57.34 52.85 53.88 60.01 61.36 63.90 66.58 66.15 64.94 66.36 64.64 62.85 66.97 67.65 70.42 72.15 72.54 72.27 73.37 74.75 77.94 78.21 77.93 78.09 78.42 78.42 78.25 77.55 78.17 78.32 77.50 77.23 77.27 77.15 76.78 76.64 76.50 76.48 76.50 76.43 76.15 76.02 75.74 75.71 75.71
72.75 69.12 66.31 60.94 55.80 58.76 60.12 61.52 63.40 63.72 65.93 66.33 65.22 62.55 66.70 69.54 68.33 70.13 71.79 71.92 71.23 72.20 73.83 76.46 77.98 77.33 77.67 77.97 77.87 77.62 77.46 77.50 77.75 78.40 77.48 77.28 77.29 77.01 76.51 76.38 76.18 76.35 76.54 76.32 75.77 75.49 75.02 75.38 75.89
71.00 67.53 59.87 57.38 58.21 60.48 62.38 64.20 64.68 62.98 64.45 64.80 65.59 63.07 64.10 69.19 70.85 71.31 71.12 71.64 71.24 72.42 74.11 75.13 77.75 78.10 78.17 77.93 77.62 77.54 77.15 76.99 77.75 78.27 77.48 77.19 77.34 76.85 76.52 76.13 76.02 76.16 76.21 76.05 75.57 74.99 75.32 75.13 75.71
65.07 65.84 56.89 53.33 55.97 61.95 63.66 65.45 65.18 64.24 64.87 64.66 63.62 62.91 63.14 69.60 69.65 70.45 71.35 71.13 72.58 73.05 74.39 75.22 77.54 78.21 78.02 77.64 77.29 77.54 77.02 76.89 77.55 77.83 77.58 77.49 77.39 77.07 76.30 75.77 75.96 76.13 76.38 76.38 75.79 75.43 75.63 76.01 75.64
59.84 58.08 54.62 54.78 58.28 59.96 62.89 66.03 64.30 63.54 63.97 63.53 65.91 61.19 64.59 67.79 70.28 71.08 71.44 71.90 72.21 73.59 73.94 74.69 75.54 75.87 77.36 78.17 77.64 77.45 77.18 76.89 77.32 77.60 77.48 77.70 77.23 76.52 75.49 75.74 75.68 75.84 76.01 76.18 76.10 75.74 76.21 76.15 75.63
62.66 59.28 56.50 55.45 55.27 58.17 64.18 65.11 66.05 64.50 63.77 68.31 67.68 61.78 62.17 67.67 70.37 71.07 71.12 71.17 71.23 72.58 73.42 73.30 73.89 74.84 75.86 75.91 77.87 77.87 77.47 77.19 77.36 77.53 77.07 76.86 76.63 76.29 75.93 77.07 76.06 75.59 75.08 76.13 76.18 76.30 76.76 75.94 76.25
67.81 55.49 52.97 53.87 56.51 60.22 64.77 63.33 66.91 67.98 65.46 66.62 67.78 66.47 67.98 69.63 70.49 69.73 69.49 69.19 70.28 71.48 72.58 73.19 73.43 74.08 74.71 74.46 75.84 77.58 77.85 77.49 77.53 77.10 77.38 77.40 74.02 73.74 75.26 74.75 75.63 75.56 75.96 74.21 73.31 75.54 77.53 77.21 76.88
60.38 53.38 56.16 60.14 60.15 60.74 64.31 64.50 65.15 64.21 64.01 64.61 65.63 68.12 69.23 69.66 69.03 68.24 67.23 67.49 68.58 69.98 71.19 72.75 73.45 73.86 74.11 75.44 73.90 73.84 74.57 74.45 74.34 74.42 73.81 74.16 72.64 72.26 75.49 75.11 74.94 75.79 75.04 73.80 75.12 76.34 77.02 75.31 71.97
60.30 55.64 59.96 61.31 62.55 63.74 64.25 64.69 66.05 63.69 61.63 64.38 64.11 66.05 67.93 68.49 68.41 68.09 68.27 68.74 69.18 70.57 71.65 72.18 72.87 73.58 73.41 73.40 73.47 73.40 73.30 72.36 72.26 72.68 72.29 72.63 73.16 73.34 73.03 71.66 72.53 71.56 70.54 66.74 71.98 72.87 72.38 72.55 72.08
54.76 59.77 60.40 62.20 63.50 61.46 63.16 65.71 64.49 64.82 64.73 67.44 67.78 67.94 67.91 67.43 67.37 67.90 68.43 69.10 69.70 70.57 71.72 72.50 72.99 73.10 72.80 72.55 73.70 73.56 73.14 71.77 70.67 71.44 71.87 71.76 71.55 71.42 71.23 70.41 71.85 71.43 69.69 69.71 71.36 71.20 71.24 71.74 70.93
54.87 57.80 61.73 63.36 62.47 60.53 61.77 63.11 64.69 64.91 67.15 68.62 68.58 68.40 67.50 67.27 67.60 68.42 69.52 70.01 70.32 70.51 71.66 72.45 73.14 73.12 72.80 72.41 72.62 71.94 72.38 71.58 71.32 71.14 72.91 72.76 71.52 70.17 70.55 70.89 71.84 71.47 70.07 70.88 71.16 71.73 71.86 71.96 71.09
55.85 56.18 56.70 61.15 61.92 61.72 58.78 60.91 62.66 65.18 67.66 67.88 67.81 67.35 67.74 67.60 67.60 67.97 68.48 68.89 69.45 70.81 71.49 72.65 72.88 73.09 72.96 72.72 71.46 71.60 72.10 71.76 71.51 72.71 73.57 72.95 71.94 70.77 69.99 70.19 71.55 71.03 70.56 69.48 71.86 70.91 70.38 70.87 69.45
55.73 52.46 54.41 55.68 60.71 60.51 62.34 58.65 61.68 66.03 67.15 66.65 66.87 67.46 67.59 68.04 68.58 67.90 68.65 68.72 69.52 71.12 71.87 71.95 72.80 73.10 72.96 72.39 71.97 72.10 72.47 72.97 72.79 72.95 73.36 72.74 72.73 71.96 72.11 71.95 71.29 71.14 72.01 72.61 70.39 70.74 70.73 68.01 68.82
50.18 48.40 45.85 52.20 56.00 60.78 58.77 53.47 62.94 66.58 65.57 64.94 66.56 67.15 67.20 67.61 68.34 69.02 69.50 69.49 70.03 71.40 71.25 72.04 73.89 73.17 72.72 73.16 72.29 72.95 72.59 70.25 70.82 72.67 73.02 73.22 73.22 73.42 72.00 72.39 70.42 71.41 71.50 71.53 70.37 70.30 68.90 67.15 64.60
45.67 43.61 45.65 48.74 56.84 60.31 57.00 53.14 60.01 66.21 65.25 64.39 65.08 66.35 67.23 67.44 68.35 69.36 70.15 70.01 70.12 71.66 71.52 71.44 72.39 72.79 72.22 73.06 73.49 72.30 71.14 72.06 71.83 72.56 72.98 73.07 73.77 74.04 72.40 72.00 71.57 70.70 72.34 70.30 70.08 68.94 68.48 65.22 63.09
42.54 43.19 45.38 46.78 52.19 57.20 54.61 53.89 59.25 65.28 64.83 64.52 65.09 65.50 66.16 66.26 67.65 68.96 68.92 70.51 70.97 71.99 72.06 72.21 72.15 72.55 72.64 72.84 72.65 71.77 71.38 72.08 71.62 72.02 72.50 74.30 73.97 74.09 71.71 71.79 71.82 71.33 70.45 69.80 68.72 67.26 66.38 64.15 64.30
47.21 46.14 45.92 49.62 53.90 54.91 55.31 55.29 58.17 62.71 64.09 63.85 64.38 64.94 65.38 66.23 67.90 68.67 69.11 70.23 70.96 71.37 71.69 72.03 71.71 72.04 72.11 72.33 70.83 69.91 69.68 70.87 71.13 72.33 71.66 73.17 73.62 74.29 72.16 71.62 71.97 71.76 70.59 68.64 68.14 66.66 62.87 62.99 64.23
47.10 45.80 46.11 49.33 52.11 54.99 54.71 55.36 57.91 60.50 61.95 63.52 63.67 64.31 65.14 66.15 66.70 67.18 68.07 69.50 69.60 70.82 71.66 71.78 71.71 71.30 71.50 72.55 72.48 70.75 70.83 71.52 71.81 70.67 71.71 73.04 73.04 73.45 72.83 72.18 71.36 71.31 68.59 67.34 65.03 63.48 62.51 63.46 63.50
46.18 44.82 45.92 46.18 50.25 55.92 55.82 53.78 56.11 57.95 58.86 61.88 63.74 64.59 65.32 65.69 65.54 66.71 67.38 68.70 69.68 70.60 71.06 71.24 71.86 71.77 71.64 72.15 71.95 71.31 71.98 72.33 71.38 70.82 71.96 73.08 73.43 73.74 73.10 72.00 71.66 70.72 69.48 66.90 64.91 64.25 62.82 60.78 63.59
41.66 48.96 49.02 48.50 46.18 43.37 53.99 44.82 54.30 56.50 57.58 59.69 61.50 62.52 63.71 64.95 65.97 66.65 67.62 67.62 69.14 70.31 71.56 71.41 72.54 72.54 72.50 72.77 72.10 71.10 70.42 69.79 70.32 70.59 72.32 73.15 73.72 73.65 72.54 72.37 71.59 67.84 68.12 65.80 65.19 66.03 64.30 62.76 60.89
46.37 49.54 49.29 49.30 46.52 42.94 48.32 46.06 50.23 55.85 55.57 57.90 60.09 61.63 63.39 64.66 65.62 65.66 67.45 68.24 69.01 70.68 70.88 71.17 71.36 73.22 73.50 73.33 72.46 71.62 70.19 70.40 69.95 70.77 71.19 72.53 73.66 73.37 73.02 72.35 71.48 67.70 67.22 66.51 65.50 64.59 63.66 64.74 62.78
51.37 46.74 46.66 46.19 45.99 39.87 46.07 49.63 46.97 52.38 55.98 58.95 61.08 62.29 62.84 64.24 65.42 66.14 67.93 68.74 68.89 70.48 71.41 71.41 70.70 73.00 73.74 73.48 72.64 71.46 70.38 69.63 68.98 69.65 70.07 72.12 73.38 73.16 72.90 73.00 71.20 67.19 66.45 67.02 65.44 64.21 63.41 64.45 64.62
46.90 40.64 36.88 36.69 37.79 39.22 45.22 45.87 49.78 56.16 59.19 60.56 61.21 60.45 62.80 64.34 64.92 65.51 66.16 67.23 68.09 68.63 70.52 71.28 71.04 70.61 73.10 72.85 72.51 72.04 71.51 70.88 69.71 69.06 70.57 71.22 72.15 71.08 72.24 71.62 68.88 67.02 65.16 66.26 65.72 65.29 64.81 63.61 63.20
43.34 42.71 38.58 32.85 33.85 38.08 44.28 42.01 49.13 56.82 61.34 62.20 62.46 61.53 62.94 63.19 64.73 65.38 66.24 67.55 67.92 68.65 70.33 71.64 71.19 70.96 72.71 73.04 72.58 72.54 72.19 71.73 71.61 70.25 71.09 72.21 72.33 72.54 72.64 71.51 69.67 67.06 66.47 66.97 66.13 65.45 64.76 64.36 62.89
45.27 39.91 44.77 37.86 37.99 37.16 41.31 45.20 49.68 54.51 58.69 60.97 61.13 61.65 62.25 62.97 63.71 65.00 66.00 67.66 68.17 68.73 70.36 71.25 71.75 71.71 72.67 72.89 72.90 73.15 73.19 72.41 71.98 70.70 71.88 71.93 72.60 72.43 72.20 71.64 69.38 67.47 65.92 68.05 66.81 65.51 64.47 65.49 63.59
46.19 46.26 40.21 35.71 34.18 34.81 38.14 41.53 44.24 48.74 52.90 57.38 60.12 61.31 62.68 63.70 64.62 65.21 65.23 67.27 68.74 69.25 70.71 71.76 72.59 72.23 72.93 73.74 73.20 72.83 73.20 73.71 72.85 71.42 71.68 71.96 71.96 72.01 71.50 70.79 69.31 67.99 66.42 66.83 66.85 65.64 64.78 63.86 64.34
45.53 43.35 40.25 40.88 37.84 37.29 33.71 41.23 47.60 49.33 52.00 56.19 60.15 62.50 63.28 63.92 63.68 64.73 65.42 67.01 68.56 69.68 70.75 71.86 72.37 72.37 72.92 73.78 73.84 73.53 72.75 72.72 73.57 73.34 73.01 72.62 71.69 71.07 71.37 70.80 69.45 68.43 67.21 66.03 67.23 64.98 65.14 63.37 63.41
49.60 45.69 41.83 40.15 36.09 38.15 41.73 42.37 50.54 51.19 52.56 57.44 60.57 62.90 63.94 64.70 64.30 64.23 65.47 65.90 67.79 69.16 70.39 71.34 72.86 72.68 73.19 73.97 74.09 73.94 73.94 73.50 72.85 72.94 73.61 72.86 72.28 71.12 71.32 71.00 69.82 69.21 68.45 67.32 66.47 65.56 65.41 64.76 63.17
MSLP
1011.68 1012.19 1012.43 1012.77 1013.10 1012.10 1010.32 1009.18 1008.22 1008.12 1007.95 1007.94 1008.07 1008.74 1010.25 1011.04 1011.40 1013.48 1013.93 1014.46 1014.85 1015.24 1015.21 1015.32 1015.39 1015.43 1015.67 1015.89 1016.10 1016.20 1016.26 1016.47 1016.70 1016.82 1016.89 1017.14 1017.18 1017.41 1017.48 1017.52 1017.52 1017.55 1017.52 1017.48 1017.45 1017.44 1017.55 1017.61 1017.53
1011.84 1012.38 1012.57 1012.75 1012.77 1011.23 1009.73 1008.70 1008.14 1007.64 1007.84 1008.03 1008.43 1009.10 1010.02 1011.47 1011.84 1013.09 1014.04 1014.48 1014.73 1015.15 1015.38 1015.40 1015.47 1015.65 1015.96 1016.16 1016.36 1016.58 1016.60 1016.76 1016.95 1017.12 1017.24 1017.30 1017.42 1017.57 1017.69 1017.81 1017.80 1017.76 1017.67 1017.62 1017.58 1017.63 1017.71 1017.66 1017.65
1011.57 1011.88 1013.08 1013.15 1012.10 1010.50 1008.96 1008.28 1007.77 1007.58 1007.86 1007.66 1008.66 1009.30 1010.47 1011.97 1012.64 1013.17 1013.59 1014.24 1014.70 1015.18 1015.38 1015.50 1015.61 1015.86 1016.16 1016.43 1016.70 1016.81 1016.93 1017.05 1017.28 1017.42 1017.36 1017.51 1017.74 1017.89 1017.99 1018.00 1017.90 1017.85 1017.81 1017.78 1017.75 1017.74 1017.73 1017.70 1017.78
1011.16 1012.89 1013.24 1012.41 1010.70 1009.36 1007.82 1007.64 1007.56 1007.54 1007.65 1007.93 1008.71 1010.34 1011.35 1011.80 1012.55 1012.82 1013.61 1014.06 1014.80 1015.25 1015.47 1015.60 1015.77 1015.98 1016.36 1016.68 1016.94 1017.03 1017.15 1017.32 1017.56 1017.47 1017.59 1017.82 1017.90 1017.98 1018.10 1018.04 1018.00 1018.06 1018.02 1017.94 1017.79 1017.75 1017.72 1017.80 1017.92
1011.28 1011.86 1012.09 1011.10 1009.36 1008.09 1007.52 1007.29 1007.31 1007.28 1007.86 1008.33 1008.80 1010.92 1011.64 1012.39 1012.59 1013.36 1013.89 1014.28 1014.81 1015.38 1015.58 1015.68 1015.86 1016.11 1016.49 1016.80 1017.10 1017.17 1017.31 1017.48 1017.58 1017.68 1017.85 1017.94 1017.93 1018.08 1018.08 1017.99 1018.06 1018.09 1018.06 1018.04 1018.01 1017.95 1017.89 1017.98 1018.10
1010.85 1011.04 1010.74 1010.02 1008.51 1006.74 1006.52 1006.73 1006.87 1007.54 1008.33 1009.11 1009.92 1010.79 1012.21 1012.56 1012.94 1013.43 1014.01 1014.46 1014.74 1015.32 1015.60 1015.75 1015.97 1016.28 1016.65 1016.91 1017.18 1017.26 1017.41 1017.62 1017.78 1017.79 1017.90 1017.92 1017.97 1018.01 1018.08 1018.13 1018.19 1018.21 1018.21 1018.24 1018.13 1018.04 1018.07 1018.23 1018.30
1010.04 1009.75 1009.85 1008.95 1007.53 1006.95 1006.28 1006.39 1006.90 1007.51 1008.42 1008.98 1009.52 1010.95 1012.56 1012.82 1012.95 1013.34 1013.89 1014.55 1014.90 1015.17 1015.59 1015.83 1016.08 1016.38 1016.73 1017.00 1017.22 1017.33 1017.51 1017.69 1017.76 1017.87 1017.90 1017.95 1018.03 1018.11 1018.15 1018.20 1018.21 1018.17 1018.19 1018.20 1018.08 1017.97 1018.09 1018.17 1018.09
1008.90 1008.71 1008.54 1007.77 1007.14 1006.51 1005.93 1006.30 1006.63 1006.99 1008.17 1008.90 1009.11 1010.60 1011.78 1012.23 1012.61 1013.16 1013.98 1014.48 1014.94 1015.34 1015.60 1015.97 1016.20 1016.43 1016.78 1017.06 1017.20 1017.36 1017.48 1017.65 1017.76 1017.84 1017.98 1018.12 1018.16 1018.12 1018.04 1018.11 1018.19 1018.17 1018.15 1018.07 1018.03 1017.79 1017.94 1018.00 1018.00
1007.90 1007.89 1007.37 1006.83 1005.99 1005.90 1006.15 1006.31 1007.26 1007.10 1007.85 1008.60 1008.56 1009.56 1010.84 1011.71 1012.41 1013.22 1014.15 1014.71 1015.09 1015.42 1015.73 1015.98 1016.21 1016.55 1016.86 1017.12 1017.22 1017.33 1017.35 1017.59 1017.67 1017.76 1017.90 1018.06 1018.23 1018.19 1018.10 1018.17 1018.25 1018.16 1018.09 1018.14 1018.12 1018.00 1017.82 1017.85 1017.75
1007.81 1007.36 1005.80 1004.86 1004.74 1005.03 1005.36 1005.43 1006.16 1007.42 1008.16 1008.70 1009.11 1010.24 1011.04 1011.68 1012.25 1012.94 1013.71 1014.42 1014.96 1015.37 1015.75 1015.90 1016.09 1016.52 1016.91 1016.98 1017.13 1017.28 1017.27 1017.56 1017.59 1017.75 1017.88 1018.10 1018.24 1018.22 1018.06 1018.12 1018.08 1018.10 1018.24 1018.20 1018.03 1017.93 1017.93 1017.78 1017.68
1006.57 1006.14 1004.87 1002.87 1003.25 1004.08 1004.57 1004.94 1005.30 1006.57 1007.86 1007.68 1008.59 1009.87 1010.70 1011.40 1012.11 1012.63 1013.32 1013.97 1014.35 1014.82 1015.31 1015.66 1015.93 1016.30 1016.68 1016.72 1017.02 1017.19 1017.20 1017.45 1017.49 1017.62 1017.60 1017.84 1018.13 1018.09 1018.12 1018.25 1018.31 1018.25 1018.28 1018.40 1018.08 1017.97 1017.99 1017.90 1017.72
1005.31 1004.64 1004.16 1002.78 1002.14 1003.24 1004.07 1004.54 1005.50 1005.43 1005.87 1007.17 1007.67 1008.70 1009.93 1010.88 1011.55 1012.13 1012.83 1013.44 1013.89 1014.50 1014.75 1015.20 1015.48 1015.90 1016.40 1016.53 1016.66 1016.84 1017.04 1017.17 1017.34 1017.36 1017.39 1017.96 1018.06 1018.13 1018.14 1018.25 1018.23 1018.44 1018.53 1018.45 1018.08 1018.16 1018.00 1018.00 1017.96
1004.03 1003.64 1003.15 1002.44 1001.83 1002.11 1003.67 1003.99 1004.32 1005.54 1006.00 1007.42 1008.51 1009.12 1009.83 1010.57 1010.95 1011.51 1011.87 1012.74 1013.31 1013.90 1014.30 1014.74 1015.22 1015.59 1015.89 1016.16 1016.36 1016.64 1016.86 1016.95 1016.85 1017.15 1017.34 1017.61 1017.79 1017.98 1018.07 1018.24 1018.12 1018.08 1018.31 1018.18 1018.41 1018.30 1018.07 1018.10 1017.98
1003.07 1002.88 1002.58 1002.14 1001.50 1001.63 1003.06 1003.47 1004.00 1005.16 1005.96 1007.57 1008.28 1008.94 1009.60 1010.21 1010.69 1011.24 1011.72 1012.24 1012.81 1013.27 1013.61 1014.17 1014.66 1014.93 1015.28 1015.82 1016.07 1016.22 1016.46 1016.55 1016.65 1016.66 1016.82 1017.14 1017.39 1017.84 1018.06 1018.11 1018.05 1018.18 1018.27 1018.23 1018.36 1018.17 1018.28 1017.86 1017.93
1002.90 1002.82 1001.99 1001.71 1001.15 1002.08 1002.41 1003.73 1003.76 1004.33 1005.00 1006.68 1007.98 1008.73 1009.22 1009.73 1010.24 1010.56 1010.87 1011.51 1012.08 1012.45 1012.88 1013.52 1014.04 1014.57 1015.02 1015.29 1015.55 1015.83 1015.79 1016.13 1016.22 1016.19 1016.32 1016.86 1017.23 1017.35 1017.51 1017.69 1017.98 1017.81 1017.95 1018.20 1018.13 1017.86 1017.98 1018.08 1017.89
1003.26 1002.94 1002.26 1000.60 1000.98 1001.59 1001.78 1003.83 1004.02 1004.48 1005.17 1006.34 1007.51 1008.24 1008.78 1009.14 1009.51 1009.89 1010.25 1010.76 1011.45 1012.06 1012.52 1013.09 1013.71 1014.28 1014.59 1014.82 1015.16 1015.46 1015.43 1015.79 1015.85 1015.83 1016.10 1016.50 1016.80 1016.90 1017.24 1017.35 1017.49 1017.42 1017.59 1017.65 1018.01 1018.07 1018.27 1018.37 1018.27
1003.96 1003.39 1002.75 1001.23 1001.16 1001.66 1002.35 1003.84 1003.88 1004.37 1004.74 1005.67 1006.67 1007.52 1007.94 1008.61 1009.03 1009.23 1009.61 1010.07 1010.67 1011.33 1012.07 1012.74 1013.32 1013.75 1014.02 1014.35 1014.60 1015.03 1015.14 1015.53 1015.57 1015.46 1015.75 1016.19 1016.50 1016.71 1017.02 1017.24 1017.27 1017.38 1017.67 1017.78 1018.10 1018.33 1018.40 1018.54 1018.51
1004.30 1003.79 1002.72 1001.83 1001.38 1002.05 1002.61 1002.71 1003.33 1003.99 1004.80 1005.30 1005.77 1006.52 1007.07 1007.47 1007.80 1008.27 1008.76 1009.40 1010.05 1010.67 1011.51 1012.21 1012.70 1013.12 1013.61 1014.06 1014.51 1014.76 1015.13 1015.22 1015.29 1015.37 1015.48 1015.83 1016.17 1016.47 1016.83 1016.90 1017.12 1017.45 1017.73 1017.93 1018.20 1018.46 1018.55 1018.60 1018.60
1003.90 1003.63 1003.00 1001.22 1001.25 1001.72 1002.04 1002.29 1002.61 1003.49 1004.59 1005.02 1005.53 1006.03 1006.30 1006.36 1006.63 1007.46 1008.10 1008.78 1009.59 1010.31 1011.08 1011.75 1012.32 1012.70 1013.29 1013.91 1014.52 1014.88 1015.06 1015.13 1015.32 1015.34 1015.45 1015.58 1015.92 1016.17 1016.48 1016.81 1017.02 1017.31 1017.74 1017.92 1018.16 1018.31 1018.54 1018.58 1018.53
1003.42 1003.22 1002.31 1001.47 1001.38 1001.92 1002.60 1002.08 1002.27 1003.08 1003.14 1003.41 1004.36 1005.24 1005.48 1006.05 1006.33 1006.72 1007.35 1008.11 1008.79 1009.55 1010.50 1011.19 1011.58 1012.11 1012.67 1013.25 1013.77 1014.16 1014.42 1014.63 1014.72 1014.95 1015.33 1015.43 1015.71 1015.86 1016.07 1016.59 1017.15 1017.20 1017.52 1017.89 1018.09 1018.34 1018.72 1018.75 1018.62
1002.62 1002.65 1001.66 1002.14 1001.72 1002.18 1002.41 1002.98 1003.27 1003.19 1003.54 1003.92 1004.05 1003.97 1004.50 1004.77 1005.47 1005.88 1006.63 1007.08 1007.74 1008.79 1009.61 1010.23 1010.68 1011.27 1012.03 1012.72 1013.46 1013.96 1014.28 1014.44 1014.77 1014.99 1015.26 1015.24 1015.21 1015.40 1015.78 1016.28 1016.61 1017.02 1017.30 1017.72 1017.96 1018.17 1018.45 1018.83 1018.84
1002.00 1001.59 1001.53 1002.20 1002.64 1002.71 1002.23 1003.13 1002.99 1003.02 1003.05 1002.95 1003.15 1003.46 1003.70 1004.11 1004.66 1004.82 1005.29 1006.20 1006.87 1007.51 1008.49 1009.36 1010.09 1010.66 1011.30 1012.03 1012.75 1013.28 1013.67 1014.19 1014.37 1014.50 1014.65 1014.85 1014.82 1015.17 1015.59 1016.03 1016.36 1016.69 1016.88 1017.37 1017.63 1017.97 1018.29 1018.64 1019.08
1000.91 1001.50 1001.57 1002.08 1002.64 1002.94 1002.26 1003.02 1001.97 1001.95 1002.38 1002.21 1002.13 1002.22 1002.63 1002.92 1003.42 1003.99 1004.10 1004.62 1005.43 1006.55 1007.53 1008.36 1009.26 1009.95 1010.45 1011.21 1011.76 1012.50 1013.10 1013.39 1013.62 1014.10 1014.42 1014.69 1014.79 1014.80 1015.24 1015.77 1016.05 1016.57 1016.72 1017.05 1017.40 1017.81 1018.13 1018.50 1019.01
1000.55 1001.30 1001.50 1002.04 1002.58 1002.71 1002.08 1002.40 1001.70 1000.93 1000.53 1000.57 1000.44 1000.51 1000.72 1001.73 1002.21 1002.78 1002.85 1003.76 1004.61 1005.52 1006.56 1007.50 1008.41 1009.23 1009.82 1010.47 1011.08 1011.60 1012.20 1012.79 1013.40 1013.78 1014.23 1014.47 1014.67 1014.83 1014.92 1015.35 1015.71 1016.00 1016.54 1016.83 1017.38 1017.75 1018.10 1018.27 1018.44
1000.07 1001.35 1002.25 1002.45 1002.37 1001.46 1001.33 1001.41 999.96 998.82 998.49 998.41 998.60 999.25 999.49 999.92 1000.87 1001.68 1002.64 1003.20 1003.88 1004.59 1005.52 1006.62 1007.69 1008.48 1009.17 1009.69 1010.21 1010.81 1011.39 1011.99 1012.49 1013.05 1013.70 1014.11 1014.31 1014.59 1014.83 1015.12 1015.51 1015.81 1016.06 1016.56 1016.84 1017.47 1017.90 1018.18 1018.39
999.33 1000.22 1000.94 1001.99 1002.02 1001.41 1000.77 1000.04 998.21 997.37 996.93 996.65 996.82 997.91 998.43 998.92 999.35 999.84 1000.68 1001.37 1002.33 1003.31 1004.47 1005.54 1006.62 1007.54 1008.36 1009.11 1009.61 1010.07 1010.64 1011.19 1011.73 1012.35 1012.94 1013.34 1013.47 1013.69 1014.16 1014.56 1014.93 1015.25 1015.57 1016.17 1016.49 1017.07 1017.53 1017.90 1018.14
998.15 999.07 999.91 1001.31 1001.65 1001.46 999.95 998.48 997.15 996.58 996.41 996.21 996.91 997.31 997.10 997.46 998.26 998.79 999.66 1000.60 1001.13 1002.46 1003.22 1004.24 1005.43 1006.49 1007.28 1007.93 1008.65 1009.28 1009.78 1010.37 1010.99 1011.74 1012.17 1012.53 1012.79 1013.16 1013.55 1014.08 1014.59 1015.00 1015.42 1015.66 1016.19 1016.65 1017.12 1017.51 1017.89
996.79 997.80 999.46 1000.30 1000.86 1000.77 999.34 998.02 996.23 996.08 995.89 995.52 995.95 996.13 995.94 996.04 996.73 997.20 997.80 998.86 1000.00 1001.02 1002.18 1003.24 1004.23 1005.14 1005.93 1006.80 1007.40 1008.17 1008.84 1009.69 1010.40 1011.06 1011.56 1011.87 1012.25 1012.62 1013.17 1013.69 1014.11 1014.58 1014.99 1015.39 1015.81 1016.31 1016.68 1017.17 1017.53
996.13 996.79 997.93 998.73 999.50 999.48 998.99 995.78 995.12 995.10 995.11 995.04 994.36 993.77 994.47 995.00 995.57 996.15 996.55 997.77 998.21 999.74 1001.37 1002.49 1003.36 1004.39 1005.42 1006.09 1006.68 1007.30 1008.07 1008.88 1009.68 1010.22 1010.68 1011.07 1011.56 1012.06 1012.57 1013.09 1013.60 1013.99 1014.52 1014.91 1015.45 1015.89 1016.42 1016.82 1017.15
994.69 995.27 996.57 997.60 998.24 998.04 996.93 992.99 994.08 994.26 994.21 994.16 993.59 993.80 993.63 993.52 994.54 995.06 995.79 996.83 998.35 999.05 1000.27 1001.42 1002.31 1003.33 1004.24 1005.11 1006.01 1006.64 1007.27 1008.12 1008.76 1009.16 1009.73 1010.28 1010.72 1011.22 1011.67 1012.35 1012.94 1013.41 1013.87 1014.39 1014.92 1015.51 1015.88 1016.29 1016.81
Wind_Speed
14 11 4 1 2 2 3 2 2 6 3 1 6 8 10 11 2 5 8 10 11 9 10 12 16 17 18 17 16 17 17 17 15 16 15 15 16 14 13 11 10 10 10 10 9 8 8 7 6
10 9 2 2 3 2 3 1 4 2 7 16 14 10 8 7 8 14 10 12 12 11 7 9 16 17 17 17 16 16 17 16 14 14 14 14 13 12 11 10 10 9 9 8 8 6 6 5 5
16 9 4 2 3 3 4 1 8 11 13 5 8 12 6 7 15 14 14 16 14 11 7 11 16 17 18 17 15 15 15 15 13 13 13 12 12 10 9 9 9 8 8 7 6 5 4 3 5
7 4 2 4 8 5 7 10 12 6 9 12 14 11 8 11 12 10 19 16 13 11 9 14 17 19 17 16 15 15 15 14 11 11 11 11 10 9 8 8 8 7 6 5 3 2 2 2 4
2 2 4 5 6 2 5 7 10 11 9 16 12 10 11 9 14 20 18 15 14 11 9 12 16 17 16 16 15 14 14 12 10 10 10 9 8 8 7 7 7 6 5 2 2 2 3 3 4
3 3 2 3 8 6 13 8 14 14 16 20 17 14 5 16 19 17 16 15 15 13 10 11 16 16 16 16 15 14 13 11 9 9 8 8 7 6 5 4 4 4 4 4 3 4 4 6 6
3 2 2 4 7 5 11 15 16 19 18 9 15 13 11 16 15 18 17 14 14 13 10 9 9 13 16 14 15 14 13 11 10 9 8 6 6 5 2 3 3 3 4 5 4 4 4 4 3
3 3 2 3 3 5 14 14 17 22 10 18 17 9 16 19 20 15 16 15 14 12 9 7 6 7 7 8 15 14 13 12 11 10 8 6 5 4 3 3 0 1 2 5 4 4 5 4 4
3 3 4 4 2 9 15 17 12 8 20 10 6 14 22 21 21 17 14 12 10 10 11 9 7 6 6 6 9 13 14 13 12 10 9 6 3 3 3 2 4 1 3 2 5 6 6 6 7
5 3 6 10 3 8 21 23 18 14 19 10 22 19 21 20 18 18 16 14 14 12 11 11 10 9 8 8 6 6 6 4 5 5 5 3 3 3 5 4 2 4 2 4 5 5 7 5 4
10 11 10 18 13 13 21 22 19 25 15 26 27 26 25 20 18 17 16 17 14 15 12 13 12 11 10 7 4 3 3 3 4 6 6 5 4 3 3 2 1 1 1 2 3 4 2 3 3
9 17 18 24 5 11 20 20 16 24 14 25 29 31 27 23 20 19 19 18 16 15 15 15 14 13 11 6 7 7 5 4 4 5 6 3 3 4 3 2 4 3 2 4 1 2 3 4 4
8 9 15 17 14 7 16 19 24 17 21 22 25 25 26 20 20 17 20 15 16 17 16 16 14 13 12 10 6 4 5 4 5 4 5 5 4 4 4 3 3 2 2 0 3 4 1 2 1
4 8 10 15 18 10 7 10 16 16 26 24 28 25 23 23 21 15 15 16 17 18 18 17 16 14 14 10 7 6 5 6 5 5 6 7 5 4 4 3 4 3 3 3 4 3 3 2 2
6 7 11 11 22 4 15 7 15 26 29 29 27 24 23 22 21 19 19 15 15 17 18 17 17 14 14 12 10 8 7 6 7 7 7 8 6 6 5 4 4 2 4 4 2 1 2 3 3
5 2 5 8 10 12 11 13 14 25 28 28 28 23 22 21 22 19 19 18 16 15 17 16 14 16 12 11 9 4 5 4 5 7 5 8 7 7 5 4 3 2 2 2 0 1 1 1 3
4 6 6 13 12 12 4 6 11 25 26 27 24 25 21 19 19 19 19 19 19 18 17 16 15 16 11 8 7 6 6 5 4 4 6 7 7 6 5 4 3 4 2 2 2 1 1 1 3
6 4 6 7 4 6 3 6 18 26 24 24 24 22 22 20 25 20 19 20 20 19 18 17 14 15 12 8 5 4 4 3 3 4 5 8 6 7 5 4 3 3 3 3 1 2 0 2 1
5 6 8 14 5 7 18 15 23 25 23 23 21 20 19 21 18 20 15 20 19 18 19 18 16 14 10 7 5 3 4 3 3 4 7 7 6 7 6 4 4 4 5 4 4 2 1 1 1
10 12 18 12 7 5 8 22 20 23 27 28 24 21 22 19 17 14 18 21 20 21 19 18 18 15 12 9 7 4 4 3 3 4 5 7 7 7 6 6 5 5 4 5 3 3 1 1 1
14 15 19 10 6 1 8 3 7 10 9 14 19 22 22 24 22 19 17 20 21 20 21 20 19 18 15 13 6 2 3 2 2 2 3 7 10 8 7 7 5 5 5 5 4 4 4 2 2
11 12 19 10 2 5 4 5 6 8 9 20 22 21 22 23 21 21 23 20 20 21 19 20 18 19 17 15 12 10 9 6 4 4 4 5 7 7 7 7 6 6 5 6 5 4 3 3 1
13 9 14 13 9 2 8 3 8 11 12 16 18 21 22 23 24 22 24 25 22 21 20 20 18 18 17 17 15 12 10 8 4 3 5 6 6 8 8 7 7 6 5 5 6 5 5 3 3
14 6 9 3 9 7 14 13 7 10 20 19 23 22 24 23 24 24 25 23 21 19 19 18 19 18 17 18 17 18 15 10 6 5 4 5 6 7 8 8 8 7 6 6 5 4 6 5 4
8 7 6 6 8 12 10 7 12 17 18 24 25 16 19 26 24 23 21 21 21 21 21 18 19 18 17 19 18 17 15 14 11 7 7 5 6 4 7 8 7 7 7 6 6 6 5 5 4
9 14 10 11 4 5 5 8 12 16 23 26 25 16 17 22 24 27 27 26 24 23 21 21 21 20 19 18 18 16 16 10 7 7 6 7 8 10 10 10 10 8 7 7 7 5 5 5 4
11 7 14 7 3 1 6 7 7 8 18 21 19 16 21 26 23 26 23 23 24 21 23 24 23 21 21 21 17 16 15 14 10 8 7 7 9 8 10 12 12 9 8 9 8 5 6 5 4
12 8 4 1 12 16 5 6 9 7 11 16 23 23 25 29 26 26 26 26 23 24 21 23 23 24 23 22 19 16 16 14 10 8 10 9 9 9 10 12 12 11 9 9 8 6 5 6 4
9 10 2 4 8 11 4 17 8 11 10 12 25 31 29 27 23 21 20 20 24 22 20 21 22 23 20 20 19 17 16 15 12 11 11 11 10 12 12 14 13 13 11 10 8 7 7 7 7
21 13 11 9 9 7 15 24 3 9 10 11 21 25 27 28 22 17 17 20 19 23 21 23 21 21 21 20 19 18 16 15 15 15 12 10 11 11 14 14 14 13 12 11 11 10 9 9 8
Wind_Direction
146 145 137 311 251 286 275 202 281 145 124 65 82 117 109 32 83 139 137 151 136 136 134 134 135 125 121 117 114 110 106 107 109 108 109 111 106 111 109 110 107 100 88 78 71 78 85 80 81
139 108 47 323 255 183 257 125 203 100 111 106 99 102 53 78 73 117 118 148 139 140 139 135 135 130 128 123 119 114 112 110 106 109 112 110 114 115 114 112 101 94 87 77 69 57 61 72 82
127 95 22 2 276 222 145 169 113 121 141 110 109 84 71 94 115 138 132 148 142 143 140 149 137 135 135 130 125 119 118 113 111 118 115 118 117 117 118 111 108 101 85 74 67 56 56 52 52
130 82 254 280 275 255 124 144 134 126 106 102 102 75 94 114 140 137 146 143 135 143 144 147 145 141 140 137 132 128 125 122 125 125 122 123 124 130 120 113 109 97 83 70 68 73 51 51 55
104 148 177 273 263 238 122 159 149 131 77 97 111 100 106 134 120 141 144 141 138 143 153 151 150 145 145 141 140 139 135 134 138 129 129 130 138 130 127 124 119 104 91 62 30 35 29 26 34
141 198 174 275 287 134 143 203 134 109 105 103 95 109 93 130 141 148 143 144 145 148 153 154 152 151 149 148 149 146 146 147 143 142 143 148 154 149 135 109 90 75 52 47 25 10 8 26 42
228 157 237 271 116 135 162 137 131 120 131 127 129 113 132 150 163 146 147 143 148 149 149 146 151 157 158 153 158 154 155 162 161 158 167 170 165 149 149 88 65 49 50 30 23 1 4 23 62
231 123 265 256 186 162 158 132 141 143 128 124 133 153 163 168 158 146 145 146 151 150 146 144 145 146 151 159 161 157 166 174 172 177 184 189 187 189 183 145 330 56 47 50 17 342 335 351 322
272 344 326 265 184 148 153 135 160 134 136 157 205 142 159 157 158 145 145 148 148 155 154 152 152 148 142 153 168 164 175 177 181 191 199 208 177 252 256 171 280 209 167 107 347 328 336 346 341
166 223 226 199 180 151 159 156 138 137 149 132 115 139 153 157 158 161 153 158 164 160 166 165 163 162 155 170 168 164 184 176 189 196 212 189 190 219 200 181 210 131 96 327 348 336 329 0 340
198 214 250 263 199 141 155 153 149 151 176 152 150 155 161 163 168 165 165 166 172 170 168 173 169 169 171 177 170 177 195 186 201 202 207 189 176 211 172 145 85 159 133 332 303 343 334 2 334
207 221 219 243 239 168 177 152 158 169 171 160 157 159 163 168 170 169 167 173 168 170 176 173 176 174 180 178 184 187 195 196 203 213 207 161 189 186 170 200 187 198 194 227 317 298 345 341 309
209 240 210 234 265 147 162 166 167 181 147 155 154 160 164 168 176 177 173 173 167 175 178 178 175 179 182 184 187 189 196 195 215 201 191 178 187 175 163 211 195 255 263 194 296 283 274 190 240
248 281 249 221 243 156 145 173 137 168 150 152 161 167 169 173 179 181 179 178 172 176 175 178 181 184 180 187 180 198 191 201 204 212 197 185 179 178 191 177 185 218 226 239 225 198 200 57 32
242 284 294 208 233 112 125 140 164 160 154 157 171 174 176 182 179 183 188 180 175 184 177 180 176 185 187 179 183 202 210 191 214 213 180 168 175 178 185 164 175 193 191 204 206 123 51 24 8
347 13 301 278 226 176 123 186 163 160 159 167 171 178 183 185 185 193 187 186 182 179 180 177 180 184 186 175 187 187 181 175 195 193 173 165 182 177 175 152 175 166 142 119 185 62 27 14 36
7 250 261 304 161 164 124 200 177 168 167 170 175 180 185 185 194 198 191 191 182 179 182 181 183 183 182 173 182 184 177 158 193 171 169 174 181 176 166 166 198 174 165 157 180 100 165 71 7
220 260 272 248 122 165 209 178 174 174 176 176 182 186 185 176 198 196 193 193 185 179 181 184 181 184 183 177 172 174 165 188 181 177 173 172 180 178 167 172 196 157 158 159 140 135 320 153 267
227 257 255 265 352 116 184 165 166 175 178 181 184 187 191 199 182 191 181 179 180 179 183 185 182 186 175 173 165 167 187 187 170 191 188 176 179 179 182 172 171 172 164 180 179 127 111 311 86
231 248 264 298 273 146 213 177 180 175 188 181 182 188 190 196 198 179 168 178 177 182 186 184 186 183 184 183 184 170 171 190 181 179 195 181 184 189 177 173 188 177 141 154 144 145 127 274 153
228 230 254 237 317 350 139 62 178 190 162 193 195 190 192 190 195 190 187 179 179 180 184 186 186 184 184 182 159 93 66 53 143 185 185 205 197 190 162 176 178 179 153 169 177 161 163 182 334
235 229 249 255 301 243 238 217 229 217 185 182 191 196 197 196 198 193 189 188 187 185 182 181 180 184 183 175 177 182 190 185 200 187 194 191 185 174 173 177 164 161 155 163 182 163 157 124 130
239 224 249 242 241 154 274 92 255 175 216 195 194 192 197 199 196 198 196 196 189 183 184 183 177 178 178 180 181 184 188 196 184 167 190 193 182 172 181 175 166 165 167 170 171 169 156 125 131
226 234 262 239 229 236 239 203 250 176 207 209 198 196 190 194 199 202 201 196 196 188 187 185 181 179 176 180 184 190 196 193 191 178 187 180 184 187 185 176 173 174 166 175 169 175 156 155 164
182 165 254 260 229 231 218 217 219 210 198 208 205 199 195 193 195 202 200 198 197 193 188 182 184 186 178 180 183 187 193 195 196 184 185 178 181 181 188 169 177 182 180 167 164 167 169 176 170
191 190 199 211 212 247 224 212 235 212 209 208 210 199 199 193 197 198 199 198 199 192 185 182 185 187 183 184 189 188 194 198 193 178 183 186 194 191 182 178 184 181 177 161 173 172 172 179 191
232 185 203 186 202 350 217 259 288 219 222 219 216 193 197 193 196 204 201 204 197 192 187 185 185 189 188 189 188 190 195 199 195 175 181 185 190 187 178 180 183 183 180 174 176 175 180 177 191
186 175 214 312 214 239 260 228 228 216 218 216 200 195 201 197 194 207 194 194 196 196 189 186 186 188 189 190 191 192 196 196 190 180 189 190 189 189 174 183 186 187 184 178 178 177 181 177 197
203 210 190 173 158 227 222 250 188 230 236 203 203 195 194 191 195 207 197 200 192 187 184 190 186 189 190 191 194 191 196 196 186 195 196 197 185 190 186 186 189 189 187 184 183 181 178 185 195
224 210 177 200 225 239 230 244 124 195 239 210 198 203 198 197 199 202 191 191 189 188 184 190 185 189 191 190 192 195 192 191 196 206 204 189 196 186 188 188 191 194 193 187 190 186 191 190 193